Location: Oberwangen
(47.4286°N, 8.9679°E)
Time: 17:00:15
(UTC+00:00)

Cosmos 1816 Rocket - Visible Passes

Search period start: 17 October 2021 00:00
Search period end: 27 October 2021 00:00
Orbit: 950 x 1000 km, 82.9° (Epoch: 16 October)

Date Brightness Start Highest point End Pass type
(mag) Time Alt. Az. Time Alt. Az. Time Alt. Az.
17 Oct 5.9 18:55:43 10° N 18:58:31 21° NE 18:58:31 21° NE visible
17 Oct 6.2 20:40:38 10° NNW 20:43:11 26° NNW 20:43:11 26° NNW visible
18 Oct 5.7 19:20:39 10° N 19:23:49 29° NNE 19:23:49 29° NNE visible
18 Oct 6.6 21:06:23 10° NNW 21:08:29 20° NW 21:08:29 20° NW visible
19 Oct 6.2 18:02:20 10° NNE 18:04:29 14° NE 18:04:29 14° NE visible
19 Oct 5.6 19:45:51 10° N 19:49:09 34° N 19:49:09 34° N visible
19 Oct 7.0 21:32:34 10° NW 21:33:49 14° NW 21:33:49 14° NW visible
20 Oct 5.8 18:26:33 10° NNE 18:29:50 21° NE 18:29:50 21° NE visible
20 Oct 5.8 20:11:14 10° NNW 20:14:30 33° NNW 20:14:30 33° NNW visible
21 Oct 5.4 18:51:24 10° N 18:55:12 31° NE 18:55:12 31° NE visible
21 Oct 6.3 20:36:54 10° NNW 20:39:53 26° NW 20:39:53 26° NW visible
22 Oct 6.2 17:33:34 10° NNE 17:35:57 12° ENE 17:35:57 12° ENE visible
22 Oct 5.1 19:16:32 10° N 19:20:37 42° NNE 19:20:37 42° NNE visible
22 Oct 6.7 21:02:56 10° NW 21:05:18 18° NW 21:05:18 18° NW visible
23 Oct 5.7 17:57:26 10° NNE 18:01:23 21° ENE 18:01:23 21° ENE visible
23 Oct 5.3 19:41:52 10° NNW 19:46:04 45° NNW 19:46:04 45° NNW visible
23 Oct 7.2 21:30:00 10° NW 21:30:45 11° WNW 21:30:45 11° WNW visible
24 Oct 5.2 18:22:10 10° N 18:26:53 33° NE 18:26:53 33° NE visible
24 Oct 5.8 20:07:27 10° NNW 20:11:34 36° NW 20:11:34 36° NW visible
25 Oct 6.2 17:05:14 10° NE 17:06:27 11° NE 17:07:42 10° ENE visible
25 Oct 4.7 18:47:13 10° N 18:52:27 53° NE 18:52:27 53° NE visible
25 Oct 6.4 20:33:21 10° NNW 20:37:08 24° WNW 20:37:08 24° WNW visible
26 Oct 5.7 17:28:21 10° NNE 17:32:30 18° ENE 17:33:23 18° ENE visible
26 Oct 4.5 19:12:30 10° N 19:18:04 73° NNW 19:18:04 73° NNW visible
26 Oct 6.9 20:59:58 10° NW 21:02:46 15° WNW 21:02:46 15° WNW visible
